Track STARLINK-31207 now! 10-day predictions STARLINK-31207 is classified as:
1 59035U 24038N 24325.97908135 .00001357 00000-0 61697-4 0 9996 2 59035 43.0024 177.6849 0001360 269.2358 90.8337 15.25919051 42424